Temp
48 46 42 46 47 44 43 40 39 43 48 45 45 44 49 53 50 50 51 51 52 53 61 57 58 57 56 57 58 61 62 65 65 64 63 62 63 64 65 66 66 65 64 63
45 41 50 50 48 47 43 41 39 44 46 46 42 46 49 50 52 53 53 53 52 52 54 56 55 54 54 59 59 62 63 65 65 67 67 67 65 63 65 66 66 66 65 64
43 47 50 50 44 45 40 40 39 43 42 42 40 41 43 49 48 52 52 51 52 53 54 54 54 54 53 52 55 60 62 65 66 67 64 56 56 55 57 60 64 65 65 64
44 49 48 45 44 46 39 47 46 43 39 35 38 32 39 45 48 50 52 50 51 51 51 53 54 54 53 54 52 55 58 61 64 65 64 63 63 62 62 63 61 62 64 64
45 45 45 43 46 48 44 46 44 41 36 33 33 33 39 40 45 50 50 50 50 51 51 52 53 53 52 51 50 50 53 57 59 62 64 62 62 64 58 56 56 55 59 63
45 46 47 48 45 47 47 44 41 35 35 29 33 35 36 41 44 46 48 49 50 50 50 51 51 52 51 49 48 48 50 53 56 59 59 60 61 57 52 51 53 52 55 59
40 41 44 47 44 45 43 41 30 28 25 27 30 31 38 45 46 47 48 48 47 48 49 50 50 50 50 49 49 49 50 51 52 54 55 55 57 55 54 53 53 49 50 51
35 34 43 47 46 42 41 41 31 22 22 28 32 31 41 45 47 47 48 46 47 48 48 49 49 48 48 49 49 48 49 49 49 50 52 52 53 52 53 51 51 52 53 54
35 37 42 43 45 48 41 37 41 30 16 23 31 37 47 45 47 47 48 48 48 49 50 50 50 48 47 47 48 47 48 48 49 48 48 49 49 50 51 50 50 51 49 49
42 35 38 41 45 43 42 45 35 30 21 18 29 30 38 43 45 46 47 47 49 49 51 50 50 50 49 47 46 47 47 47 47 48 47 47 47 47 48 48 47 47 47 47
42 40 34 39 38 38 39 37 37 38 32 23 20 31 42 45 46 44 46 48 49 50 49 49 49 49 49 49 48 48 48 47 47 47 46 46 46 46 46 46 46 46 46 45
43 39 30 35 38 40 39 40 39 32 27 27 29 32 44 45 46 48 48 48 46 47 48 48 48 48 48 48 48 47 46 46 46 46 46 46 46 46 45 45 45 45 45 44
44 36 25 31 35 37 37 38 40 38 33 26 26 32 44 43 43 44 43 43 45 45 46 46 45 44 44 44 44 44 44 44 44 44 44 44 44 44 44 44 44 44 43 43
46 37 35 32 33 37 34 35 37 39 30 32 32 36 41 42 42 44 43 43 43 42 43 43 43 43 44 43 41 41 43 42 42 42 42 42 43 43 43 43 43 42 42 41
43 33 35 36 38 38 35 35 36 35 35 34 35 34 41 43 44 41 40 42 43 43 43 43 42 42 42 43 42 42 42 41 40 40 40 41 40 40 40 39 38 38 37 38
40 32 34 31 34 35 32 35 35 35 35 35 35 37 47 44 43 41 41 42 42 42 43 43 42 42 40 40 40 40 39 38 36 36 35 36 35 34 35 35 35 35 36 35
34 30 27 26 29 31 27 31 33 33 35 37 34 41 41 38 40 40 40 40 40 41 42 42 41 40 39 38 38 37 36 35 33 32 33 32 33 33 34 33 33 34 34 34
30 30 27 21 19 19 31 33 33 35 39 42 40 37 38 38 39 40 40 40 41 41 40 40 40 39 38 36 36 34 32 32 32 32 31 31 31 31 32 32 31 32 31 31
36 31 18 19 6 23 30 32 31 31 33 38 37 36 37 37 33 35 40 40 38 38 39 38 38 37 36 34 33 31 31 31 32 32 31 31 30 29 29 30 30 29 27 27
33 35 27 6 11 11 25 31 36 37 24 35 37 35 36 35 30 31 40 37 38 38 38 37 35 34 33 32 30 29 30 28 29 30 30 30 29 28 28 30 30 31 28 31
27 26 23 14 10 16 28 32 35 21 27 27 35 36 35 32 35 38 36 36 37 37 36 35 32 32 32 31 29 28 28 27 28 27 27 27 27 26 27 28 30 31 31 31
26 25 22 20 19 16 32 32 29 33 30 33 33 34 33 34 35 35 34 36 36 35 33 33 32 31 31 29 25 25 25 27 25 24 24 24 23 24 26 23 29 31 30 30
21 26 22 25 26 34 32 33 35 35 34 32 34 33 33 34 34 34 34 34 33 34 34 32 26 27 28 23 21 22 24 24 27 26 23 24 28 23 21 21 28 29 29 28
26 29 24 25 31 30 33 35 35 36 36 36 34 33 33 33 34 34 34 34 32 27 25 23 21 23 23 19 20 19 20 20 23 25 26 26 28 29 28 22 22 25 27 27
27 29 23 23 29 31 32 34 36 35 35 34 34 33 34 34 34 34 32 30 28 25 23 20 19 21 22 21 18 14 18 14 18 24 26 28 29 28 28 27 21 18 20 26
27 27 28 23 32 33 33 34 35 32 33 33 32 31 32 32 32 31 29 26 25 24 20 19 21 21 21 16 14 12 9 9 14 20 24 28 29 28 26 25 26 32 33 33
MSLP
1015.41 1015.98 1016.51 1016.74 1016.82 1017.18 1017.52 1017.50 1017.29 1017.11 1017.03 1017.36 1017.57 1017.61 1017.47 1016.66 1016.72 1016.67 1016.60 1016.24 1016.03 1015.75 1014.61 1014.80 1014.81 1014.87 1015.23 1015.56 1015.95 1015.93 1016.26 1016.45 1017.18 1017.81 1018.30 1018.72 1018.81 1019.19 1019.43 1019.54 1019.92 1020.56 1020.96 1021.30
1016.22 1016.02 1016.22 1016.67 1017.10 1017.12 1017.55 1017.50 1017.54 1017.51 1017.58 1017.87 1018.03 1017.86 1017.50 1017.02 1016.28 1016.04 1016.00 1015.61 1015.52 1015.37 1014.55 1014.43 1014.60 1014.71 1014.83 1014.81 1015.02 1015.43 1015.49 1015.68 1016.10 1016.69 1017.03 1017.59 1018.18 1018.58 1018.58 1018.81 1019.21 1019.68 1020.11 1020.57
1015.89 1015.78 1016.06 1016.66 1017.00 1017.40 1017.63 1017.77 1017.71 1018.15 1018.29 1018.59 1018.83 1018.40 1017.89 1016.47 1016.03 1015.31 1015.15 1015.43 1015.31 1015.15 1014.85 1014.35 1014.43 1014.46 1014.40 1014.59 1014.39 1014.49 1014.50 1014.73 1015.08 1015.60 1016.63 1017.39 1017.95 1018.60 1018.78 1018.73 1018.84 1018.84 1019.25 1019.79
1016.09 1015.77 1016.06 1016.58 1016.88 1017.10 1017.64 1017.55 1017.74 1018.66 1019.08 1019.73 1019.87 1019.54 1018.23 1016.93 1016.24 1015.59 1015.20 1015.38 1015.35 1015.11 1014.80 1014.81 1014.56 1014.48 1014.62 1014.42 1014.45 1014.38 1014.30 1014.50 1014.66 1015.14 1015.79 1016.29 1016.78 1017.33 1017.30 1017.60 1018.14 1018.34 1018.60 1018.85
1015.80 1015.95 1016.02 1016.49 1016.51 1016.82 1017.27 1017.69 1018.53 1019.30 1020.08 1020.42 1020.77 1020.58 1018.03 1017.20 1016.58 1015.95 1015.65 1015.72 1015.76 1015.63 1015.49 1015.27 1015.28 1015.11 1014.90 1014.60 1014.53 1014.50 1014.38 1014.44 1014.67 1015.01 1015.29 1015.82 1016.25 1016.42 1016.79 1017.28 1017.73 1018.10 1018.28 1018.28
1015.89 1015.81 1015.92 1016.00 1016.51 1016.82 1017.40 1018.37 1019.62 1020.55 1021.19 1021.60 1020.74 1020.51 1018.85 1017.33 1016.43 1016.17 1016.15 1016.24 1016.27 1016.11 1015.87 1015.69 1015.43 1015.36 1015.17 1014.97 1014.79 1014.80 1014.75 1014.70 1014.73 1014.84 1015.16 1015.49 1015.88 1016.43 1016.97 1017.31 1017.54 1017.76 1017.97 1018.15
1016.24 1016.09 1016.07 1016.08 1016.76 1017.29 1017.73 1019.00 1020.80 1021.98 1022.43 1022.33 1021.22 1020.91 1018.63 1016.73 1016.44 1016.46 1016.62 1016.85 1016.93 1016.76 1016.51 1016.44 1016.43 1016.08 1015.88 1015.76 1015.45 1015.11 1015.16 1015.09 1015.03 1015.23 1015.36 1015.55 1015.71 1016.04 1016.39 1016.74 1017.11 1017.58 1017.82 1017.92
1016.23 1016.68 1016.13 1015.94 1016.24 1017.13 1018.02 1018.56 1020.18 1021.80 1023.00 1022.64 1021.64 1020.13 1017.50 1016.58 1016.63 1016.77 1016.97 1017.21 1017.31 1017.37 1017.31 1017.26 1017.06 1016.91 1016.77 1016.43 1016.02 1015.63 1015.55 1015.56 1015.54 1015.55 1015.52 1015.63 1015.82 1016.09 1016.30 1016.54 1016.78 1016.87 1017.00 1017.15
1015.92 1016.07 1015.94 1015.94 1016.07 1016.47 1018.11 1018.71 1019.50 1021.38 1023.65 1023.08 1021.22 1019.48 1017.23 1016.57 1016.94 1017.34 1017.56 1017.48 1017.81 1017.72 1017.42 1017.37 1017.25 1017.28 1017.42 1017.11 1016.59 1016.34 1016.20 1016.02 1015.85 1015.74 1015.83 1015.78 1015.86 1016.08 1016.14 1016.15 1016.35 1016.49 1016.61 1016.75
1014.82 1015.95 1016.34 1016.39 1016.39 1016.87 1016.96 1017.92 1019.59 1021.06 1022.60 1022.88 1021.23 1019.96 1018.03 1017.65 1017.74 1017.69 1017.83 1018.06 1018.03 1017.74 1017.50 1017.66 1017.51 1017.35 1017.25 1017.04 1016.88 1016.67 1016.39 1016.40 1016.19 1016.13 1015.98 1015.94 1015.73 1015.86 1015.99 1016.11 1016.20 1016.27 1016.35 1016.48
1014.60 1015.21 1017.25 1017.08 1016.72 1016.72 1017.57 1017.90 1018.95 1019.80 1020.98 1021.56 1021.10 1019.35 1017.17 1017.52 1017.68 1017.88 1017.90 1018.33 1018.23 1018.20 1018.02 1018.01 1017.96 1017.86 1017.78 1017.49 1017.27 1017.12 1016.90 1016.75 1016.67 1016.61 1016.60 1016.46 1016.04 1015.93 1015.92 1015.91 1015.92 1015.95 1015.99 1016.02
1014.56 1015.39 1017.01 1016.93 1016.73 1016.55 1016.59 1017.13 1017.77 1019.29 1020.77 1020.86 1020.37 1018.50 1017.29 1017.53 1017.50 1017.57 1018.17 1018.07 1018.31 1018.45 1018.48 1018.55 1018.53 1018.48 1018.38 1018.37 1018.07 1017.86 1017.47 1017.28 1017.23 1017.06 1016.86 1016.44 1016.01 1015.95 1015.89 1015.95 1015.93 1015.84 1015.60 1015.56
1014.33 1015.20 1017.05 1017.56 1017.53 1017.13 1017.08 1017.46 1017.74 1018.42 1019.30 1019.88 1020.07 1018.32 1017.84 1017.89 1018.12 1018.09 1018.28 1018.49 1018.72 1018.91 1018.95 1019.09 1019.12 1019.24 1019.18 1019.15 1018.90 1018.62 1018.35 1018.08 1017.74 1017.47 1017.00 1016.64 1016.45 1016.40 1016.20 1015.95 1015.70 1015.54 1015.36 1015.21
1014.35 1015.59 1016.28 1016.63 1016.95 1016.97 1017.84 1017.87 1018.10 1018.29 1019.24 1019.03 1018.34 1018.35 1018.20 1017.87 1017.88 1018.37 1018.71 1019.00 1019.15 1019.46 1019.59 1019.51 1019.38 1019.20 1019.09 1019.20 1019.24 1018.98 1018.47 1018.33 1018.16 1017.93 1017.56 1017.01 1016.79 1016.56 1016.29 1015.97 1015.70 1015.48 1015.34 1015.20
1015.21 1016.79 1017.47 1017.67 1017.75 1017.81 1018.04 1018.14 1018.24 1018.43 1018.33 1018.65 1018.15 1018.34 1017.95 1017.94 1018.05 1018.45 1018.94 1018.88 1018.89 1019.23 1019.35 1019.60 1019.92 1019.88 1019.66 1019.34 1019.17 1018.95 1018.86 1018.58 1018.31 1017.77 1017.57 1017.49 1017.16 1016.75 1016.35 1015.95 1015.64 1015.35 1015.11 1014.94
1016.59 1017.93 1018.80 1019.55 1019.51 1019.41 1019.17 1018.70 1018.57 1018.59 1018.53 1018.37 1018.30 1017.53 1017.61 1018.09 1018.63 1019.03 1019.28 1019.46 1019.71 1019.88 1020.06 1020.21 1020.42 1020.49 1020.41 1020.31 1020.08 1019.78 1019.60 1019.37 1019.16 1018.74 1018.20 1017.86 1017.57 1017.05 1016.50 1015.98 1015.61 1015.24 1014.77 1014.44
1017.91 1018.89 1019.97 1021.13 1020.97 1020.60 1020.21 1018.38 1018.43 1018.56 1018.20 1018.10 1018.01 1017.18 1017.79 1018.73 1019.01 1019.37 1019.72 1019.77 1019.97 1020.21 1020.46 1020.67 1020.84 1020.85 1020.70 1020.68 1020.63 1020.45 1020.20 1019.79 1019.46 1019.17 1018.81 1018.28 1017.66 1017.33 1016.79 1016.17 1015.64 1015.19 1014.86 1014.51
1018.31 1019.51 1020.86 1022.49 1022.53 1021.42 1018.80 1018.39 1018.32 1018.24 1017.76 1017.66 1017.46 1017.67 1018.16 1018.59 1019.07 1019.25 1019.42 1019.64 1020.05 1020.37 1020.66 1020.90 1020.91 1020.97 1020.98 1020.81 1020.63 1020.48 1020.18 1019.92 1019.73 1019.32 1018.91 1018.59 1018.11 1017.40 1016.95 1016.50 1015.83 1015.37 1014.95 1014.58
1018.55 1019.62 1021.99 1023.35 1023.53 1021.19 1018.86 1018.33 1018.22 1018.15 1017.64 1017.26 1017.70 1017.99 1018.35 1018.76 1019.36 1019.51 1019.36 1019.62 1019.93 1020.22 1020.49 1020.77 1021.08 1021.26 1021.20 1021.22 1021.12 1021.01 1020.73 1020.48 1020.08 1019.60 1019.11 1018.65 1018.15 1017.61 1016.95 1016.27 1015.88 1015.31 1015.15 1014.92
1019.54 1019.71 1021.26 1024.19 1023.78 1022.05 1019.49 1018.13 1017.67 1017.71 1017.93 1017.21 1017.37 1018.14 1018.59 1019.03 1019.55 1019.88 1019.29 1019.67 1019.93 1020.25 1020.54 1020.80 1021.03 1021.25 1021.30 1021.24 1021.31 1021.26 1020.97 1020.68 1020.21 1019.71 1019.23 1018.79 1018.38 1017.82 1017.04 1016.48 1015.67 1015.03 1014.59 1014.66
1020.27 1020.65 1021.72 1022.91 1022.89 1021.06 1019.11 1018.28 1017.99 1018.59 1018.27 1017.66 1017.87 1018.25 1018.61 1019.16 1019.30 1019.55 1019.76 1020.02 1020.08 1020.25 1020.51 1020.82 1021.04 1021.23 1021.24 1021.15 1021.18 1021.12 1020.85 1020.46 1019.96 1019.57 1019.08 1018.57 1018.13 1017.73 1017.05 1016.46 1015.55 1014.97 1014.11 1014.23
1019.37 1020.34 1021.02 1021.75 1021.81 1020.36 1018.12 1018.64 1018.58 1017.83 1018.01 1017.96 1018.29 1018.61 1019.03 1019.28 1019.36 1019.41 1019.94 1020.13 1020.20 1020.38 1020.56 1020.73 1020.94 1020.99 1020.99 1021.15 1021.25 1021.13 1020.86 1020.26 1019.93 1019.50 1018.94 1018.35 1017.87 1017.49 1016.98 1016.44 1015.50 1014.91 1014.59 1014.38
1019.34 1018.58 1019.22 1019.44 1018.82 1017.78 1017.59 1017.63 1017.53 1017.59 1017.83 1018.46 1018.65 1019.05 1019.42 1019.72 1019.74 1019.67 1019.66 1020.24 1020.48 1020.53 1020.65 1020.60 1021.01 1020.98 1020.85 1021.11 1021.34 1021.35 1020.76 1020.39 1019.86 1019.38 1018.85 1018.19 1017.54 1017.28 1016.84 1016.45 1015.77 1015.12 1014.70 1014.46
1018.72 1018.30 1018.41 1018.82 1017.58 1017.57 1017.64 1017.60 1017.67 1017.94 1018.37 1018.71 1019.01 1019.28 1019.62 1019.95 1019.81 1019.84 1019.82 1019.73 1020.33 1020.58 1020.81 1020.99 1021.36 1021.35 1021.05 1021.14 1021.30 1021.27 1020.90 1020.54 1020.08 1019.48 1018.84 1018.12 1017.47 1016.88 1016.50 1016.31 1015.86 1015.48 1014.89 1014.39
1017.54 1017.84 1017.97 1018.01 1017.68 1017.68 1017.77 1017.90 1018.03 1018.23 1018.53 1018.92 1019.23 1019.57 1019.84 1020.09 1019.88 1019.99 1020.07 1020.20 1020.26 1020.68 1021.03 1021.17 1021.56 1021.43 1021.15 1021.04 1021.05 1021.14 1020.98 1020.80 1020.35 1019.54 1018.73 1017.99 1017.31 1016.83 1016.39 1015.95 1015.77 1015.35 1014.81 1014.39
1016.70 1016.62 1016.99 1017.03 1017.04 1017.14 1017.73 1018.16 1018.43 1018.93 1019.29 1019.58 1019.93 1020.03 1020.14 1020.44 1020.53 1020.54 1020.64 1020.63 1020.85 1020.92 1021.23 1021.47 1021.47 1021.33 1021.04 1021.20 1021.36 1021.32 1021.09 1021.01 1020.58 1019.60 1018.62 1017.68 1016.96 1016.48 1016.18 1015.93 1015.50 1014.93 1014.33 1014.00
Wind_Speed
2 5 7 9 7 3 6 4 4 2 1 3 5 6 12 10 7 10 11 10 11 11 14 8 9 9 9 8 9 12 12 15 10 9 8 7 9 8 8 8 12 14 13 14
5 4 7 5 5 4 3 3 2 2 1 3 3 9 10 9 11 8 10 11 10 8 10 8 8 7 9 13 13 12 15 15 13 11 10 9 8 6 9 9 11 13 13 14
7 3 9 6 5 6 3 5 4 5 1 3 4 9 7 6 5 7 7 6 7 10 11 9 7 6 7 9 11 14 16 16 14 15 5 3 4 3 3 5 9 12 14 14
4 3 6 4 5 6 5 7 5 4 4 3 2 6 7 5 11 6 9 6 8 7 4 5 7 7 5 7 7 8 8 11 12 12 11 14 12 12 10 9 8 9 14 13
7 8 6 4 6 6 6 4 4 3 4 3 4 2 9 3 6 6 8 7 7 8 7 9 8 7 6 7 4 4 6 7 7 9 12 10 12 9 3 3 7 7 9 11
4 1 4 7 3 3 9 7 7 5 3 2 6 6 7 3 3 3 4 7 8 9 9 8 7 7 6 6 7 4 2 3 6 8 8 11 12 7 4 5 6 5 6 8
1 1 0 3 7 4 4 7 2 4 3 6 1 3 11 5 1 3 4 6 7 8 9 10 11 11 10 10 9 6 5 2 2 5 5 7 8 8 10 7 6 6 5 4
8 4 8 5 7 10 7 8 8 8 5 4 3 6 6 2 3 4 4 4 7 9 7 8 8 8 9 9 9 8 7 5 2 4 6 5 6 4 5 5 5 6 7 8
7 5 1 2 4 8 6 4 5 8 3 4 4 6 6 3 6 5 7 9 9 8 8 9 8 5 6 7 8 9 8 6 3 4 5 6 5 6 6 7 6 6 5 5
8 4 1 2 3 3 5 8 4 3 3 3 3 3 6 7 7 5 9 8 7 7 9 9 8 8 7 6 6 7 6 6 5 5 4 5 6 6 6 5 7 7 5 6
6 5 0 4 7 10 3 3 4 5 5 7 2 7 7 8 8 8 8 6 6 8 7 7 7 7 7 6 7 7 8 8 8 6 6 7 6 5 5 6 6 7 6 7
7 6 5 7 2 3 3 7 7 6 5 2 4 7 2 9 8 8 5 3 3 5 8 7 7 8 9 9 10 9 8 8 7 7 7 7 6 6 6 6 6 6 8 6
8 4 4 2 2 2 5 3 4 5 4 8 7 6 2 5 6 4 3 4 5 6 8 8 8 7 6 6 7 7 7 7 6 6 7 8 8 7 7 7 7 7 7 7
6 4 6 10 2 5 5 3 2 5 4 5 8 5 8 7 6 4 5 5 6 5 5 5 7 7 7 6 4 4 5 5 7 7 7 7 8 8 8 7 7 7 7 7
4 4 4 5 4 3 4 6 7 7 6 9 2 5 4 7 7 2 3 4 6 7 8 8 8 8 9 12 12 12 11 11 10 10 10 10 9 8 8 8 7 7 7 7
4 4 3 2 4 2 3 6 7 5 4 5 4 15 9 2 6 5 5 6 6 6 7 7 7 7 7 8 9 10 9 10 9 10 8 8 8 8 7 7 7 7 8 7
5 7 4 4 1 4 8 8 9 5 5 7 10 7 5 4 5 5 5 3 1 3 5 6 7 7 7 7 7 10 10 9 8 7 8 7 7 9 9 8 8 8 7 6
7 6 3 4 1 5 3 2 2 8 9 8 9 3 5 5 4 5 4 4 5 5 4 5 5 6 6 6 6 7 7 8 9 9 6 6 8 8 9 9 7 8 6 6
2 6 4 5 4 7 5 7 9 9 8 10 8 3 5 4 3 4 7 6 1 0 3 3 3 3 6 7 6 7 9 7 8 9 10 10 9 10 9 8 8 7 4 6
3 6 5 3 6 10 5 3 4 5 6 7 8 7 5 4 1 4 6 1 2 3 2 4 4 3 5 5 4 5 7 7 7 8 10 9 9 8 8 10 8 3 2 7
4 3 6 4 3 9 8 6 1 8 9 2 6 6 4 2 5 4 1 4 4 4 4 3 3 5 5 5 5 6 6 7 6 7 8 7 6 8 8 8 5 4 4 4
9 8 5 4 3 11 8 7 7 5 2 5 4 3 2 5 7 7 3 6 6 5 3 3 4 5 5 4 1 6 7 5 7 8 8 8 6 6 6 7 5 5 4 5
3 7 8 9 8 0 7 1 2 3 6 3 4 2 0 5 6 8 7 6 7 6 5 3 4 6 5 3 2 6 5 7 11 12 10 9 10 6 5 5 7 5 3 4
4 3 3 4 6 5 6 3 3 3 6 4 2 1 2 6 8 8 8 7 3 4 4 3 3 6 8 3 3 5 6 5 7 10 12 11 10 11 7 4 3 4 4 3
6 9 7 4 2 3 2 4 5 3 4 4 3 3 7 7 11 7 6 6 5 4 2 2 3 5 8 6 5 3 6 5 7 9 10 11 9 7 6 4 4 3 4 4
6 7 7 6 5 5 5 7 5 5 5 6 5 5 4 6 9 4 6 3 3 5 2 3 5 7 8 5 5 4 3 4 6 9 8 8 7 5 4 3 4 6 3 6
Wind_Direction
18 107 190 198 170 138 147 155 173 235 164 145 237 267 278 290 295 275 268 260 257 254 263 237 236 219 214 216 202 203 191 203 187 195 195 198 205 199 202 200 196 201 201 193
45 207 212 120 151 135 134 121 250 310 8 152 349 277 260 268 261 237 257 266 263 278 286 269 254 231 210 222 213 214 210 203 198 200 207 207 202 206 208 205 202 202 202 199
150 229 141 146 142 145 200 170 191 208 37 31 1 305 320 292 264 267 256 267 274 264 285 301 299 252 234 223 211 210 211 209 205 206 176 96 75 68 149 207 213 212 201 200
214 177 135 156 173 136 172 201 153 161 95 225 3 278 303 300 295 313 316 313 325 327 332 328 336 345 328 267 237 225 219 214 210 193 190 199 207 210 211 204 205 205 209 199
235 170 142 151 193 162 199 115 129 93 97 83 317 57 272 342 315 331 10 41 8 13 17 13 7 4 357 4 338 269 231 210 195 193 200 202 213 221 184 168 179 189 205 217
180 46 154 180 90 145 143 83 53 56 88 312 225 152 284 223 189 0 353 2 5 11 10 10 353 353 358 9 30 20 288 225 191 187 193 199 213 195 171 185 196 191 202 212
67 197 319 134 84 44 90 85 358 350 5 222 92 100 242 262 298 292 332 23 18 12 16 14 8 1 357 4 6 19 20 282 196 203 199 199 207 195 206 199 200 180 190 206
152 232 165 181 170 168 186 156 159 195 196 250 110 228 246 124 90 57 65 54 45 30 14 20 21 9 354 353 357 13 13 349 293 234 226 217 222 215 216 202 198 213 209 213
149 244 54 104 145 145 191 188 157 106 28 61 223 286 327 88 79 53 78 57 39 23 7 356 357 27 358 352 353 352 349 336 317 254 244 238 230 223 226 221 217 223 212 204
198 130 51 139 105 35 155 158 87 5 143 253 274 254 229 149 136 120 62 54 14 359 5 359 356 353 349 353 333 336 343 319 314 311 283 265 248 245 248 241 237 232 232 214
142 112 167 120 210 160 137 171 61 119 150 169 185 253 227 135 148 115 94 42 15 358 356 350 345 347 339 333 348 338 341 336 335 335 312 297 289 274 261 250 242 231 232 214
186 127 160 198 246 217 180 185 153 144 223 234 152 258 55 134 138 114 128 94 348 340 340 359 357 353 359 351 352 353 350 349 338 323 311 307 312 300 288 272 263 242 241 224
180 192 88 48 4 341 192 166 148 114 82 198 143 249 187 124 140 155 156 329 341 12 15 4 7 3 11 8 6 359 1 0 358 338 338 326 317 318 301 292 281 263 255 244
84 106 179 206 155 132 169 151 115 146 167 177 220 140 239 283 340 56 60 50 56 43 18 355 3 1 1 355 339 339 355 3 357 345 341 342 331 320 309 297 291 285 277 267
94 86 41 20 96 90 160 165 170 182 195 185 157 200 247 302 318 51 98 79 58 31 16 9 358 353 352 354 351 353 351 351 352 350 349 339 325 319 316 312 301 286 276 271
18 125 113 95 336 5 271 238 216 197 201 257 271 271 206 147 102 41 48 58 44 7 350 349 346 347 346 344 338 336 341 340 340 337 330 327 328 326 320 312 306 298 289 275
138 138 125 164 275 74 297 217 208 192 190 170 215 253 143 148 141 151 148 127 9 349 336 335 328 324 327 329 332 330 327 326 328 318 318 322 329 327 324 317 319 315 302 295
136 107 68 155 52 202 200 14 58 230 248 227 258 138 132 150 174 227 173 190 216 221 270 287 305 317 321 322 328 325 331 329 328 324 324 320 326 325 320 318 317 317 311 304
354 124 95 147 190 309 263 214 177 172 255 211 223 202 143 121 105 273 196 201 204 242 271 258 262 284 312 322 330 331 322 322 325 328 330 329 325 320 318 318 319 317 309 308
104 82 107 93 154 205 249 302 162 114 283 196 169 167 162 137 53 244 212 172 243 298 265 282 297 284 306 315 324 313 305 313 312 326 317 315 312 306 308 314 309 272 239 294
139 97 169 176 195 285 230 220 346 101 240 187 135 153 145 166 197 177 98 261 228 232 266 277 294 294 293 312 331 304 299 294 295 302 301 301 297 303 299 307 288 288 318 305
167 160 179 135 109 268 178 64 177 205 55 127 123 126 223 263 291 287 227 234 229 270 284 281 281 282 280 292 283 291 289 304 311 307 305 308 305 309 310 304 299 318 318 297
211 184 176 177 204 149 197 198 209 144 136 116 107 84 250 291 285 293 282 195 212 237 260 275 262 288 271 272 221 289 286 321 321 317 313 312 316 307 308 311 313 311 311 313
251 155 147 91 239 184 167 139 108 117 113 134 207 257 291 266 269 267 279 285 221 218 237 227 282 293 299 256 243 247 293 302 305 307 310 310 309 316 315 306 293 305 308 300
184 146 165 254 259 76 142 152 124 83 5 337 296 252 256 273 278 264 276 286 277 239 250 219 266 277 280 291 297 300 315 324 305 296 299 302 299 290 295 283 270 263 260 233
175 164 181 211 185 149 171 177 169 180 210 239 257 293 279 238 262 295 282 262 286 298 274 271 265 267 283 300 300 298 316 324 304 297 290 285 285 280 282 297 314 346 312 320